Temp
70 64 58 65 64 67 67 63 63 68 70 65 59 59 61 66 70 67 67 70 69 70 76 76 77 77 77 77 77 74 73 72 71 72 73 69 68 72 68 68 70 69 69 71
65 61 71 73 75 72 71 63 63 67 70 65 59 56 63 65 67 65 65 65 69 71 72 72 72 74 72 72 72 72 71 72 75 74 76 75 71 68 66 66 68 69 70 69
64 72 79 77 72 70 64 62 62 62 68 67 63 56 57 66 69 66 66 66 71 69 68 69 70 70 72 71 70 71 71 70 70 70 71 72 70 68 66 66 65 66 68 68
68 77 77 73 72 70 60 71 72 69 61 55 62 43 54 62 64 67 68 64 69 70 69 69 68 68 69 70 71 71 71 71 71 69 68 66 66 66 65 65 66 67 68 67
69 71 72 70 71 73 68 74 70 68 59 56 59 51 56 59 59 63 64 69 70 70 69 68 68 67 69 70 69 69 69 69 70 68 67 66 65 66 67 67 65 67 66 68
72 78 74 73 78 76 76 70 63 58 54 48 54 52 47 52 57 58 64 69 70 69 69 68 68 69 69 69 69 69 67 67 67 68 68 66 64 63 64 63 64 64 64 63
69 69 75 78 70 72 68 56 47 47 43 45 57 51 50 59 66 66 66 66 66 67 65 65 64 65 65 65 65 69 64 65 65 66 67 67 65 64 63 62 61 61 61 62
57 58 69 77 69 62 62 57 48 41 43 46 58 47 52 62 68 70 70 65 65 64 63 64 64 63 64 64 64 64 63 63 64 65 65 66 65 63 62 61 60 60 59 59
56 61 75 77 75 70 64 57 59 52 48 46 47 53 60 62 63 67 67 67 62 63 64 64 64 64 63 63 63 63 63 62 63 63 64 66 64 63 62 61 60 59 60 62
61 56 69 75 75 73 67 67 54 49 40 38 47 48 48 56 59 62 62 61 63 63 63 64 64 64 64 63 62 63 63 62 62 62 61 64 63 64 63 62 60 60 60 60
58 56 61 67 63 59 61 58 55 51 48 41 39 45 56 56 58 60 61 61 62 62 62 63 63 63 63 64 63 62 62 62 62 62 61 61 62 63 62 61 61 60 61 60
59 53 49 58 67 70 63 58 54 46 47 46 44 44 61 61 61 62 60 63 63 62 63 62 63 63 63 63 63 62 61 62 61 62 61 59 59 60 60 61 61 60 60 61
58 50 44 52 58 65 61 63 58 52 47 47 42 44 62 62 62 60 60 61 62 63 64 66 66 61 62 62 62 62 62 60 60 63 61 59 58 57 58 59 60 60 59 59
61 50 49 44 52 57 58 62 62 52 45 46 46 49 55 57 56 57 58 60 61 63 65 62 60 60 60 61 61 61 60 60 59 60 58 57 58 57 57 58 58 59 58 52
57 49 52 56 61 63 61 61 60 56 51 47 50 50 51 54 55 57 59 61 61 61 62 61 60 59 59 59 59 59 58 58 58 59 59 58 57 58 57 58 57 56 52 50
55 49 52 52 62 62 58 61 60 58 58 55 54 50 56 58 58 57 56 58 58 59 61 61 62 61 60 59 58 59 58 57 57 57 58 59 58 58 56 54 56 52 50 49
52 49 46 45 57 56 49 54 56 54 56 53 46 49 55 54 56 54 56 58 58 59 61 61 61 60 59 57 58 56 56 57 56 56 57 57 57 58 57 56 52 50 48 46
52 49 46 44 49 40 52 61 60 55 56 55 55 55 56 54 55 55 57 56 58 59 60 60 60 61 61 59 59 56 57 56 56 54 54 54 56 54 55 54 52 50 48 45
57 49 45 43 41 50 56 58 56 52 49 55 53 55 56 57 56 55 59 58 56 58 58 58 58 58 56 57 56 56 55 54 53 52 52 53 54 53 52 51 51 50 47 45
59 52 48 45 41 40 50 61 65 59 42 55 55 53 53 52 43 47 57 58 58 58 58 58 57 57 56 55 54 53 52 54 51 51 51 52 51 50 49 48 48 50 47 46
49 48 46 42 41 47 57 62 63 44 43 53 54 52 51 48 50 53 55 57 56 56 58 59 56 54 55 56 53 52 53 51 50 51 51 49 49 48 47 46 45 48 46 45
50 45 43 44 40 39 59 58 49 50 51 53 54 53 51 51 55 55 55 55 55 55 57 58 55 54 58 58 54 52 52 50 50 49 48 47 47 46 44 42 42 47 46 43
49 51 47 47 44 52 54 53 53 54 54 53 52 54 53 53 53 53 54 57 54 54 54 56 53 53 54 54 54 50 50 51 49 48 45 44 44 43 42 40 40 44 46 45
55 56 50 49 50 52 54 56 57 56 54 56 56 56 54 51 53 52 53 52 51 52 54 53 52 52 54 56 54 52 52 50 49 47 43 43 42 42 41 42 44 42 38 37
54 55 50 47 51 52 56 55 55 58 58 57 56 55 54 52 51 52 51 51 50 50 51 52 52 56 56 54 53 54 51 50 47 44 43 42 42 42 42 41 39 38 36 36
51 50 47 43 51 50 50 54 58 56 54 54 53 53 53 52 50 50 49 49 54 53 55 54 52 51 54 53 55 54 53 49 46 43 42 43 43 43 44 43 42 41 40 40
MSLP
1007.29 1008.17 1008.25 1007.74 1007.54 1007.01 1006.84 1006.69 1006.89 1006.97 1007.76 1008.83 1010.45 1010.63 1010.74 1010.57 1009.57 1009.23 1010.28 1011.34 1011.12 1010.58 1009.39 1009.44 1009.02 1008.70 1008.32 1007.60 1007.66 1007.77 1007.58 1007.05 1007.14 1006.99 1007.28 1006.83 1006.43 1006.44 1006.77 1006.92 1006.65 1006.92 1007.32 1006.91
1007.77 1007.63 1006.68 1006.63 1006.21 1006.39 1006.28 1006.31 1006.45 1007.13 1007.93 1008.98 1010.73 1011.49 1011.13 1011.08 1011.20 1009.45 1011.38 1012.85 1011.83 1010.73 1010.49 1010.53 1010.40 1010.30 1010.08 1009.62 1009.23 1009.34 1009.01 1008.51 1007.61 1007.42 1007.30 1006.81 1006.50 1006.85 1007.44 1008.13 1008.20 1007.97 1008.05 1006.21
1007.08 1006.15 1005.60 1005.99 1005.94 1006.00 1005.99 1006.12 1006.38 1007.04 1008.14 1009.76 1010.18 1012.00 1012.19 1011.93 1011.95 1012.74 1013.16 1014.02 1012.70 1011.86 1012.40 1012.57 1011.78 1011.48 1011.15 1010.80 1010.64 1010.04 1009.74 1009.39 1009.09 1008.76 1007.50 1007.23 1006.64 1005.38 1007.01 1007.99 1007.68 1007.31 1008.99 1008.69
1006.09 1005.31 1005.36 1005.54 1005.69 1005.86 1005.90 1005.68 1006.19 1007.03 1008.42 1010.01 1010.63 1013.73 1013.46 1013.34 1013.15 1013.52 1013.33 1013.87 1012.62 1012.73 1013.15 1013.18 1012.82 1012.64 1012.52 1012.25 1011.57 1010.88 1010.52 1010.08 1009.63 1009.96 1009.58 1009.28 1008.93 1008.75 1008.61 1009.33 1008.89 1007.29 1006.09 1008.07
1006.06 1005.46 1005.16 1005.35 1005.38 1005.56 1005.81 1005.74 1006.46 1007.18 1008.93 1009.96 1011.62 1013.01 1014.46 1013.80 1014.12 1014.20 1014.45 1013.68 1012.95 1012.90 1012.98 1013.19 1013.36 1013.50 1013.35 1013.03 1012.79 1012.35 1011.73 1011.05 1010.64 1010.80 1010.54 1010.08 1009.66 1009.55 1009.75 1009.03 1008.00 1007.78 1008.14 1008.45
1005.93 1005.24 1004.99 1004.90 1004.93 1005.50 1005.80 1006.47 1007.59 1008.70 1009.87 1011.60 1012.28 1012.96 1015.27 1014.56 1015.02 1015.66 1014.69 1013.86 1013.82 1012.82 1013.16 1013.67 1013.83 1013.84 1013.91 1013.68 1013.18 1012.78 1012.36 1011.90 1011.26 1011.00 1010.94 1010.72 1010.24 1009.92 1009.69 1009.27 1009.07 1008.82 1008.69 1008.93
1006.47 1005.62 1005.10 1004.95 1005.41 1005.91 1006.67 1008.00 1009.58 1011.02 1011.92 1013.04 1012.80 1013.63 1015.27 1014.85 1014.01 1014.27 1014.16 1014.28 1014.06 1013.48 1013.52 1014.28 1014.55 1014.41 1014.45 1014.23 1013.61 1013.16 1012.79 1012.40 1011.83 1011.38 1011.00 1010.86 1010.68 1010.21 1009.86 1009.67 1009.38 1009.27 1009.03 1008.68
1007.95 1006.76 1005.92 1005.38 1005.82 1006.64 1007.50 1008.89 1010.65 1012.09 1013.30 1013.53 1013.21 1014.68 1015.11 1014.73 1014.47 1014.25 1014.16 1013.86 1013.85 1014.16 1014.34 1014.67 1014.81 1014.85 1014.69 1014.35 1013.95 1013.46 1013.15 1012.82 1012.26 1011.75 1011.46 1011.08 1010.75 1010.65 1010.30 1009.92 1009.57 1009.04 1008.89 1008.82
1008.73 1007.86 1006.79 1006.25 1005.97 1006.80 1007.94 1009.12 1010.20 1011.90 1013.39 1014.37 1015.00 1015.10 1015.08 1014.85 1014.82 1014.16 1014.47 1014.32 1014.96 1015.08 1014.99 1015.12 1015.02 1014.74 1014.54 1014.23 1013.86 1013.57 1013.30 1012.95 1012.50 1012.06 1011.54 1011.15 1010.86 1010.51 1010.20 1009.88 1009.69 1009.28 1008.67 1008.21
1009.75 1009.38 1008.58 1007.51 1007.01 1007.68 1008.26 1009.38 1010.73 1012.64 1014.62 1015.61 1015.60 1015.57 1015.26 1015.32 1015.10 1014.79 1014.91 1015.16 1015.34 1015.40 1015.53 1015.47 1015.25 1015.09 1014.93 1014.62 1014.31 1013.77 1013.49 1013.12 1012.72 1012.26 1011.76 1011.24 1010.80 1010.27 1009.83 1009.57 1009.44 1009.18 1008.60 1008.28
1010.55 1010.82 1010.33 1009.22 1009.37 1009.26 1009.60 1010.30 1011.87 1013.52 1014.99 1016.04 1016.52 1016.42 1015.48 1015.49 1015.45 1015.42 1015.50 1015.44 1015.66 1015.95 1015.98 1015.95 1015.81 1015.48 1015.10 1014.64 1014.31 1014.03 1013.72 1013.29 1012.78 1012.28 1011.72 1011.25 1010.79 1010.23 1009.66 1009.18 1008.88 1008.65 1008.50 1008.13
1011.85 1012.44 1012.27 1011.47 1010.23 1009.84 1010.29 1011.13 1012.21 1014.21 1015.34 1015.75 1016.22 1017.09 1016.28 1016.13 1015.79 1015.74 1016.18 1016.28 1016.29 1016.25 1016.25 1016.06 1015.76 1015.71 1015.46 1015.16 1014.64 1014.30 1013.87 1013.33 1012.78 1012.24 1011.91 1011.43 1010.83 1010.51 1009.98 1009.26 1008.65 1008.30 1008.11 1008.10
1012.53 1013.63 1013.66 1012.61 1011.62 1010.69 1011.14 1011.50 1012.25 1013.56 1014.68 1015.85 1016.78 1017.59 1017.03 1016.77 1016.87 1016.91 1016.89 1016.94 1016.96 1016.74 1016.39 1016.20 1015.86 1015.84 1015.54 1015.15 1014.72 1014.25 1013.86 1013.60 1013.13 1012.49 1012.16 1011.67 1011.15 1010.65 1010.15 1009.31 1008.65 1008.11 1007.83 1007.84
1012.92 1014.47 1014.94 1014.85 1014.11 1013.26 1012.55 1012.20 1012.53 1013.50 1015.15 1016.56 1017.34 1017.97 1017.92 1017.74 1017.76 1017.74 1017.75 1017.57 1017.33 1016.99 1016.78 1016.56 1016.38 1016.05 1015.67 1015.22 1014.89 1014.63 1014.32 1013.83 1013.34 1012.83 1012.39 1011.93 1011.35 1010.75 1010.09 1009.22 1008.39 1007.88 1008.15 1008.90
1014.30 1015.46 1015.41 1014.90 1014.32 1013.75 1013.58 1013.46 1013.69 1014.47 1015.25 1016.61 1018.40 1018.80 1019.10 1018.81 1018.73 1018.56 1018.37 1017.98 1017.64 1017.42 1017.15 1016.88 1016.55 1016.08 1015.56 1015.24 1015.01 1014.78 1014.31 1013.96 1013.60 1013.20 1012.65 1012.16 1011.53 1010.97 1010.32 1009.53 1008.77 1008.58 1009.00 1009.55
1015.28 1016.03 1016.08 1015.55 1014.86 1014.80 1014.86 1014.85 1014.93 1015.69 1016.74 1017.91 1018.60 1019.05 1019.31 1019.29 1019.22 1019.07 1018.76 1018.31 1017.98 1017.62 1017.13 1016.66 1016.22 1015.78 1015.43 1015.41 1015.30 1015.11 1014.90 1014.49 1013.97 1013.54 1013.05 1012.49 1011.74 1010.95 1010.50 1010.23 1009.55 1009.85 1010.34 1010.61
1016.18 1016.92 1017.20 1016.65 1015.57 1015.30 1015.92 1016.57 1016.75 1017.56 1018.01 1018.56 1019.22 1019.95 1019.78 1019.70 1019.44 1019.22 1018.91 1018.51 1018.16 1017.74 1017.19 1016.69 1016.22 1015.74 1015.42 1015.78 1015.78 1015.46 1015.03 1014.63 1014.40 1014.31 1013.86 1013.19 1012.40 1011.13 1010.56 1010.51 1010.73 1011.11 1011.63 1012.04
1016.37 1017.24 1017.72 1017.78 1016.60 1016.96 1017.57 1017.45 1017.33 1018.19 1019.13 1019.43 1019.82 1020.01 1019.94 1019.83 1019.62 1019.39 1018.93 1018.68 1018.40 1017.82 1017.33 1016.84 1016.21 1015.63 1015.75 1015.73 1015.40 1015.30 1015.14 1015.15 1014.82 1014.67 1014.49 1014.02 1013.15 1012.54 1011.82 1011.77 1011.91 1012.14 1012.49 1012.97
1016.21 1017.46 1018.45 1018.54 1018.37 1017.99 1017.54 1017.60 1017.88 1018.22 1019.66 1019.83 1019.97 1020.04 1019.97 1019.81 1019.65 1019.48 1018.98 1018.67 1018.33 1017.98 1017.54 1017.00 1016.51 1016.37 1016.29 1016.09 1015.84 1015.69 1015.52 1015.64 1015.51 1015.10 1014.94 1014.60 1014.09 1013.64 1013.23 1013.11 1013.14 1013.40 1013.72 1014.13
1016.69 1017.58 1018.48 1019.04 1019.05 1018.61 1018.23 1017.76 1017.54 1018.20 1019.69 1020.02 1020.04 1020.18 1020.24 1020.23 1020.46 1020.30 1019.40 1018.86 1018.47 1018.10 1017.88 1017.52 1017.04 1016.93 1016.75 1016.54 1016.52 1016.22 1016.26 1016.03 1015.83 1015.87 1015.79 1015.38 1015.09 1014.72 1014.54 1014.40 1014.14 1014.16 1014.41 1014.63
1017.45 1018.42 1019.22 1019.58 1019.51 1019.10 1018.48 1018.23 1017.72 1018.94 1020.63 1020.20 1020.20 1020.27 1020.54 1020.79 1020.63 1020.12 1019.55 1019.11 1018.88 1018.67 1018.34 1017.99 1017.60 1017.46 1017.25 1016.81 1016.84 1016.59 1016.65 1016.88 1016.76 1016.83 1016.61 1016.42 1016.05 1015.85 1015.46 1015.21 1015.12 1015.13 1015.51 1015.75
1017.74 1018.70 1019.55 1020.07 1020.18 1020.04 1019.08 1018.82 1019.37 1020.49 1020.31 1020.29 1020.34 1020.43 1020.55 1020.58 1020.19 1019.91 1019.79 1019.55 1019.18 1018.93 1018.55 1018.19 1017.97 1017.76 1017.36 1017.04 1016.69 1016.83 1016.68 1017.23 1017.21 1017.57 1017.35 1017.16 1017.06 1016.83 1016.52 1016.25 1016.19 1015.91 1016.06 1016.35
1018.18 1018.67 1019.48 1020.64 1020.81 1020.71 1020.21 1020.23 1020.34 1020.51 1020.59 1020.59 1020.57 1020.50 1020.48 1020.52 1020.44 1020.32 1020.12 1019.86 1019.43 1019.16 1018.92 1018.50 1018.29 1017.90 1017.35 1016.99 1016.69 1016.90 1017.33 1017.22 1017.41 1017.95 1017.99 1018.08 1017.96 1017.87 1017.65 1017.29 1017.09 1016.90 1016.87 1017.06
1018.49 1018.57 1019.78 1020.64 1021.46 1021.10 1020.88 1020.72 1020.65 1020.65 1020.76 1020.74 1020.72 1020.90 1020.97 1021.11 1020.97 1020.70 1020.38 1019.96 1019.64 1019.36 1019.13 1018.81 1018.46 1017.93 1017.38 1016.95 1016.77 1017.21 1017.48 1017.49 1017.78 1018.30 1018.49 1018.74 1018.64 1018.72 1018.56 1018.28 1018.13 1018.14 1018.22 1018.34
1019.28 1019.14 1020.27 1021.35 1021.59 1021.43 1021.22 1021.09 1020.97 1020.95 1021.03 1021.26 1021.35 1021.48 1021.54 1021.49 1021.22 1020.87 1020.58 1020.16 1020.00 1019.68 1019.31 1018.87 1018.55 1018.03 1017.49 1016.98 1016.77 1017.18 1017.61 1017.81 1018.21 1018.69 1018.87 1019.09 1019.20 1019.33 1019.34 1019.30 1019.32 1019.22 1019.16 1019.01
1019.92 1020.08 1020.63 1021.21 1021.39 1021.51 1021.54 1021.22 1021.10 1021.40 1021.83 1021.96 1021.99 1021.94 1021.82 1021.70 1021.59 1021.14 1020.83 1020.41 1019.97 1019.52 1019.03 1018.75 1018.59 1018.20 1017.65 1017.32 1017.16 1017.54 1017.83 1018.01 1018.36 1018.68 1018.87 1019.12 1019.36 1019.59 1019.77 1019.80 1019.84 1019.70 1019.50 1019.35
Wind_Speed
3 4 5 12 8 7 4 3 4 4 10 12 5 7 8 8 12 16 17 21 16 9 17 18 18 17 19 20 19 15 5 7 3 1 2 4 6 4 3 2 8 6 1 3
5 5 13 9 4 5 8 2 6 3 10 14 6 5 7 9 4 14 15 17 12 16 17 20 21 19 18 18 17 15 13 12 7 4 3 3 3 4 6 6 6 9 16 23
7 7 8 2 7 5 2 3 3 1 8 10 10 9 10 5 9 17 5 8 4 16 14 13 17 18 19 20 18 17 16 13 13 17 8 8 5 3 5 5 5 6 4 8
3 3 2 6 3 2 3 3 3 4 5 4 2 1 6 8 7 4 8 4 13 13 12 13 15 15 14 13 15 16 16 15 14 13 12 11 7 8 5 3 3 4 7 9
5 0 4 5 3 3 8 4 5 2 5 5 9 7 4 4 8 14 6 9 12 13 15 15 13 12 13 13 12 11 12 14 15 12 8 6 6 4 2 3 5 5 2 5
5 4 2 4 4 5 6 4 8 6 4 6 6 8 6 4 4 10 12 7 10 14 13 10 8 9 11 10 11 12 12 13 14 13 12 8 7 5 4 5 5 5 3 0
7 2 2 2 6 7 10 8 5 7 7 3 4 10 5 7 6 7 6 6 5 8 9 8 7 8 8 8 7 9 10 11 11 12 13 11 7 6 6 3 2 2 3 3
4 6 1 1 3 3 3 6 6 1 2 3 6 5 3 5 7 6 6 7 7 8 7 7 7 6 5 5 6 7 8 9 11 13 13 9 8 1 2 3 3 3 0 2
6 5 6 7 0 6 5 6 1 6 3 5 1 3 2 4 7 7 6 8 6 6 7 7 6 5 4 5 5 6 7 7 8 9 9 10 7 6 5 2 3 2 3 3
4 3 4 8 9 7 8 2 8 6 3 2 3 2 4 4 3 4 6 6 6 5 6 5 5 7 5 5 4 6 5 5 5 6 6 7 7 8 6 4 4 4 3 3
3 4 7 5 6 3 6 6 7 6 4 4 0 4 2 3 1 5 4 6 8 8 7 6 5 4 5 5 6 6 6 6 7 7 7 8 9 10 8 6 5 6 5 6
3 5 1 2 3 3 4 3 5 6 5 1 5 3 4 3 8 8 8 11 10 8 7 7 6 6 7 7 8 7 7 7 7 7 7 9 8 11 12 11 7 6 6 5
4 4 4 10 9 8 5 4 3 4 3 2 6 3 6 3 8 8 10 8 7 8 7 7 9 7 6 7 7 7 8 8 8 10 11 10 10 9 10 9 7 7 6 4
6 4 6 5 6 5 7 10 5 5 5 2 3 5 8 9 8 8 8 7 6 6 6 5 7 7 7 7 7 7 8 8 7 7 7 8 10 9 9 10 8 7 6 12
6 3 4 3 5 5 7 8 10 11 2 7 5 10 3 4 6 5 5 7 8 8 8 7 7 6 7 8 7 7 7 7 7 8 9 10 8 8 10 11 11 8 12 13
5 2 6 4 3 11 9 9 11 10 11 12 9 8 4 4 3 5 4 5 5 5 6 7 8 8 8 7 6 6 7 7 6 7 9 11 12 12 8 8 9 12 12 12
3 3 4 5 7 3 8 9 11 11 12 3 5 3 4 6 4 4 6 7 7 7 7 9 9 8 7 6 6 6 6 5 7 10 12 14 15 15 9 6 11 11 12 12
3 2 2 3 6 5 1 4 16 16 9 7 6 4 4 3 2 3 4 5 8 8 8 10 9 8 6 3 4 4 6 6 9 9 12 12 14 18 14 10 10 10 11 11
4 4 3 4 1 2 3 5 3 3 5 3 4 5 5 6 5 7 6 5 5 6 8 7 7 6 5 4 4 5 6 6 8 9 11 12 11 11 13 15 12 8 11 10
5 5 5 2 2 3 1 4 4 5 1 3 4 5 5 5 5 5 8 8 8 8 6 9 8 6 5 6 6 6 6 7 8 10 11 10 11 11 11 10 10 10 9 10
2 3 2 0 3 1 3 5 6 1 4 2 1 3 5 2 5 6 7 8 6 4 7 7 6 5 5 5 5 5 7 8 8 7 9 10 10 9 9 8 8 9 9 9
4 4 1 2 3 2 6 5 5 5 2 2 5 3 4 4 7 6 7 7 6 7 7 8 7 6 6 7 4 4 7 3 7 6 8 9 9 10 9 10 9 6 5 6
4 4 5 3 5 2 5 7 1 2 3 4 3 4 3 6 7 6 5 7 6 6 6 6 6 6 7 7 4 2 4 4 8 7 8 7 9 9 9 10 9 8 9 8
4 2 5 4 1 4 4 4 5 3 3 4 5 7 7 5 7 6 6 6 4 5 6 6 7 7 8 7 4 5 4 6 7 8 6 6 8 8 9 7 8 7 7 6
3 4 4 3 3 1 6 3 3 6 8 9 8 6 7 7 7 7 7 7 4 5 5 5 7 7 9 9 3 5 5 6 8 5 5 5 5 6 8 9 6 6 4 4
2 2 4 4 4 5 3 2 5 9 7 6 7 7 7 6 7 5 5 5 7 10 8 8 8 7 10 6 3 4 5 6 6 5 4 4 5 4 4 5 6 10 9 9
Wind_Direction
309 57 252 263 212 216 270 341 81 105 154 69 56 49 325 8 43 49 18 357 327 351 43 34 30 20 23 29 35 25 24 307 328 217 170 246 211 222 78 108 151 136 115 211
20 225 243 241 314 327 331 81 332 89 120 94 84 22 340 27 26 72 14 330 313 33 36 24 26 27 26 22 19 31 23 13 345 335 309 282 312 56 69 37 3 15 32 343
179 227 227 318 0 47 25 65 355 295 72 80 98 12 355 344 55 81 244 289 39 76 59 33 34 26 23 27 22 24 24 21 14 24 350 347 7 56 75 30 55 333 26 355
213 294 53 31 14 117 11 269 329 319 69 162 99 175 323 341 358 62 94 247 88 85 76 54 43 40 33 30 25 24 18 18 16 30 28 37 17 35 26 323 290 210 119 234
259 347 48 36 271 345 244 322 312 304 115 102 6 83 312 2 5 21 342 76 79 85 76 64 54 43 38 33 28 16 13 14 9 23 21 21 18 40 349 348 319 20 55 1
239 273 121 213 306 320 273 349 30 39 62 56 253 120 330 329 93 85 276 86 82 80 82 74 54 48 40 35 28 24 12 9 5 14 25 20 9 7 44 29 19 358 5 301
328 234 284 66 27 358 52 53 358 8 12 181 260 57 219 286 111 177 156 120 109 102 88 90 85 65 52 31 28 28 17 9 4 9 10 15 9 7 18 6 139 160 303 326
6 32 166 357 136 202 25 113 141 244 266 282 358 134 222 216 337 283 110 115 86 82 92 89 91 88 80 54 32 32 20 3 359 3 3 358 4 18 334 321 316 337 334 273
24 334 331 340 291 92 312 35 239 107 11 73 320 29 68 255 289 43 49 78 105 102 88 102 99 118 91 62 50 47 25 3 359 356 357 350 334 334 315 255 262 294 318 307
331 8 16 311 44 15 86 272 26 13 65 24 337 162 243 177 265 40 49 80 86 111 104 84 59 48 35 26 2 20 5 0 330 339 335 331 319 322 308 288 254 240 216 284
33 75 303 33 15 309 3 33 56 107 119 150 157 314 282 190 246 86 59 30 66 67 52 41 40 20 22 14 7 347 351 335 332 326 324 327 323 326 315 292 266 251 251 201
16 132 307 241 245 91 115 118 109 111 283 157 127 293 317 56 35 47 44 43 60 57 43 36 39 16 4 353 342 334 326 329 316 314 324 325 324 336 330 325 302 278 253 277
347 13 18 353 349 7 33 341 120 110 79 205 110 218 18 67 45 34 70 60 50 36 25 12 18 358 349 339 335 335 328 330 341 339 338 340 337 339 333 326 313 311 278 296
83 75 134 170 236 247 326 325 13 106 95 112 44 102 4 9 41 39 43 44 36 33 19 1 358 347 327 321 324 328 333 348 345 344 347 335 333 332 323 317 310 312 33 78
84 56 15 251 276 352 14 72 67 63 40 91 118 94 21 3 80 53 30 21 17 6 357 333 311 313 315 326 328 352 345 351 346 347 350 339 334 333 327 332 335 57 84 88
6 346 30 316 30 60 46 30 58 48 73 100 107 64 357 49 106 55 21 5 356 334 327 320 322 323 312 338 354 360 354 347 337 351 359 350 342 327 322 357 39 79 89 89
74 78 45 294 337 31 37 349 84 72 40 94 68 7 345 32 57 61 11 350 327 311 307 310 307 304 314 358 18 357 327 333 2 10 359 354 341 330 331 44 70 74 72 75
98 71 96 270 4 56 171 84 98 88 57 56 73 47 37 354 288 281 313 307 324 316 308 315 307 306 25 29 33 356 10 5 30 13 8 357 16 26 19 35 62 73 81 76
102 106 52 96 71 96 346 2 10 10 31 23 71 14 4 352 12 326 333 332 289 297 310 301 314 343 59 34 341 9 27 30 24 21 17 8 11 33 38 30 37 63 76 76
74 79 101 41 76 236 238 289 330 123 318 358 58 7 332 359 17 277 307 312 336 360 16 8 34 55 38 342 358 21 26 32 32 25 22 23 25 24 34 27 19 85 88 84
19 5 157 230 203 228 331 330 326 135 237 286 312 330 351 356 215 251 298 348 7 348 6 3 28 41 323 309 350 34 49 31 46 35 41 31 23 22 18 28 25 97 90 89
153 119 305 71 53 282 345 24 88 221 298 328 10 330 325 308 295 326 358 20 18 6 353 357 355 344 330 335 17 60 67 71 59 36 42 36 25 31 23 33 28 51 89 100
35 172 158 138 184 257 1 102 86 154 56 345 340 310 317 350 347 354 348 345 346 355 346 339 342 341 327 340 355 120 71 99 82 63 36 29 42 32 32 38 30 38 47 58
346 131 110 107 24 91 67 53 64 55 25 335 342 24 44 25 5 345 326 309 343 353 349 333 332 332 326 336 0 90 120 106 94 76 62 53 60 47 41 39 43 45 46 53
223 29 96 67 114 156 29 46 32 24 23 28 39 43 27 11 335 307 311 324 354 334 314 314 324 330 329 341 48 110 127 105 94 96 94 87 75 60 63 53 39 49 37 92
352 178 139 189 213 145 247 352 50 46 42 51 44 11 355 347 331 327 328 311 325 322 324 335 337 322 323 348 103 123 116 105 121 139 144 143 102 81 74 75 68 35 46 45